Showing default

SNAP-3 JIMI, 40975

Orbit data source: Space-Track

SNAP-3 JIMI, 40975 is a payload satellite owned by SMDC (US) in LEO that was launched on Thu, 08 Oct 2015 UTC via an ATLAS V 401 launch vehicle from the Air Force Western Test Range (AFWTR). Payloads include a variety of satellites, spacecraft, and rockets equipped with specific instruments for various scientific and technological missions. These include communications satellites like Starlink; space stations such as the ISS; scientific satellites like the Hubble; Earth observation satellites from companies like Planet Labs, Umbra, and HawkEye 360; GPS; miniature CubeSats for education and research; and military/defense satellites.

Loading next visibility...
SNAP-3 JIMI details
Identifier
40975, 2015-058M
Orbit
LEO
Last TLE update1 day ago
Origin
Flag of USSMDC (US)
ManufacturerDuocomm Miltec
MissionOperational Defense Communications
Bus & MotorCUBESAT 3U, Unknown motor
Mass5.3 kg wet, 5.3 kg dry
Launch date (UTC)
2015-10-08 (9 years ago)
Launch vehicle
ATLAS V 401
Launch site
Air Force Western Test Range (AFWTR)
Object type
Payload
Rocket body
Debris
Shape & HBRBox + 8 Pan, 0.5 m
Radar Cross Section0.085 m², Small (<0.1 m²)

Expand to show TLE details & history

TLE from 1 day ago
0 SNAP-3 JIMI
1 40975U 15058M   24360.49759402  .00020111  00000-0  14853-2 0  9997
2 40975  64.7675 113.4142 0168780 248.6901 109.6122 14.92546524 33524
Epoch: 2024-12-25T11:56Z
Definitive object data (Epoch: 2024-12-25T11:56:32.123Z)
Latitude-0.00005°
Longitude-160.21016°
Altitude633.232 km
Speed7.52 km/s
True Right ascension07h 33m 39s
True Declination0° 00' 00"
Sunlit
Object was in full shadow at TLE epoch
Visualization TLE readout
Latitude-64.39713°
Longitude94.67858°
Altitude500.513 km
Speed7.675 km/s
Apparent Right ascension23h 35m 05s
Apparent Declination-52° 59' 45"
Sunlit
Object is in daylight
Visualization observer readout
Local Sidereal Time10:59:58
Azimuth201.7° SSW
Elevation-75.615°
Doppler factor1
Orbital elements
Apogee altitude706.149 km
Perigee altitude470.981 km
Semi-major axis6,966.702 km
Eccentricity0.016878
Inclination64.7675°
RAAN113.4142°
Arg. of periapsis248.6901°
True anomaly111.42096°
Mean anomaly109.6122°
Eccentric anomaly110.51789°
Mean motion3.73252 °/min
BSTAR0.0014853
Orbital period96.45 mins
Loading maneuver chart data...
Loading historical data...
Loading historical data...
Loading historical data...
Loading historical data...
Loading historical data...
Loading historical data...
Loading historical data...

SNAP-3 JIMI Visibility forecast

Observer location: undefined°, undefined

Span
Click to sort rows by Start time (UTC) header in descending order
Start Az.
Max El. time (UTC)
Max El. Az.
Max El.
End time (UTC)
End Az.
7 mins2024-12-26 17:24:35.545Z347.943° N2024-12-26 17:28:35.545Z48.231° ENE26.377°2024-12-26 17:31:35.545Z102.154° ESE
6 mins2024-12-26 19:05:35.545Z293.594° NW2024-12-26 19:07:35.545Z254.317° W27.417°2024-12-26 19:11:35.545Z185.59° SSW
8 mins2024-12-27 09:06:35.545Z203.873° SW2024-12-27 09:10:35.545Z72.339° E43.556°2024-12-27 09:14:35.545Z35.098° NE
4 mins2024-12-27 10:48:35.545Z296.487° NW2024-12-27 10:50:35.545Z325.897° NNW16.535°2024-12-27 10:52:35.545Z352.191° N
|